Temp
6 6 7 8 7 6 6 6 6 6 6 5 5 6 6 5 5 5 5 5 5 5 5 5 5 6 6 6 6 6 5 5 5 5 5 5 5 5 4 4 4 3 3 3
6 6 7 6 6 6 6 5 6 6 5 5 5 5 6 5 6 6 6 6 5 5 5 5 5 6 6 5 5 4 4 4 4 4 4 4 4 4 4 3 3 2 2 2
6 6 6 6 5 5 5 5 5 5 5 4 4 4 6 6 6 7 6 6 6 5 5 5 6 6 5 5 5 5 4 4 3 3 3 3 3 2 2 2 2 1 1 0
4 5 5 5 5 4 4 5 4 4 3 3 3 6 5 6 7 8 8 7 7 6 6 5 5 5 5 4 4 3 3 3 2 2 2 2 1 1 1 1 0 -0 -1 -1
5 5 5 5 5 4 3 3 3 2 2 2 2 2 4 7 7 7 7 7 7 6 6 5 5 5 4 4 3 2 2 2 2 2 1 1 1 0 -0 -1 -1 -1 -1 -1
3 4 4 3 3 3 3 2 2 1 1 1 2 2 4 6 8 7 7 7 7 6 6 5 5 4 4 3 3 2 2 1 1 1 0 -0 -1 -1 -2 -2 -2 -2 -1 -1
3 4 4 3 2 2 2 1 2 2 1 3 3 0 4 5 7 7 7 6 6 6 5 5 4 4 3 2 2 1 1 0 -0 -1 -1 -1 -2 -2 -2 -2 -2 -2 -2 -2
4 3 5 4 3 2 2 1 3 2 2 4 0 1 4 5 5 5 6 6 6 5 5 4 4 3 2 2 2 1 -0 -1 -1 -1 -2 -2 -2 -2 -2 -2 -2 -3 -3 -3
4 3 4 4 3 1 0 -0 2 1 0 -0 3 3 4 5 5 5 5 5 5 4 4 3 3 3 2 2 1 -0 -1 -2 -2 -3 -3 -3 -3 -3 -3 -3 -3 -4 -4 -5
4 3 3 3 2 0 1 2 -0 0 1 1 2 1 5 4 4 4 4 4 3 3 3 3 2 2 1 1 0 -1 -2 -3 -3 -3 -3 -3 -3 -3 -4 -4 -5 -6 -6 -7
3 2 2 2 1 2 1 0 1 1 2 2 4 4 4 3 4 3 3 3 2 2 1 1 1 0 0 -0 -1 -2 -3 -3 -3 -3 -3 -3 -4 -4 -5 -6 -6 -7 -8 -9
4 1 1 2 2 2 1 1 2 2 -0 1 1 3 3 3 3 2 2 1 1 0 -0 -0 -0 -0 -1 -1 -2 -3 -3 -3 -3 -3 -4 -4 -5 -6 -7 -7 -8 -9 -9 -10
3 -1 -0 1 -0 0 0 1 2 2 2 2 1 2 3 2 2 1 1 0 -1 -1 -1 -1 -1 -2 -2 -2 -3 -3 -4 -4 -4 -4 -5 -6 -7 -7 -8 -9 -10 -10 -11 -11
2 1 1 2 3 2 1 2 1 1 1 1 1 2 2 1 1 1 0 -0 -1 -1 -2 -2 -2 -3 -3 -3 -4 -4 -4 -4 -5 -6 -7 -7 -7 -8 -9 -10 -11 -11 -12 -12
0 -1 0 1 2 2 2 3 2 1 2 1 2 1 1 1 1 1 -0 -1 -1 -2 -2 -3 -3 -4 -4 -4 -5 -5 -6 -6 -7 -7 -7 -8 -9 -10 -11 -11 -12 -12 -13 -13
-1 -1 -1 -0 -0 0 0 1 1 2 1 1 0 1 0 1 -0 0 -0 -1 -2 -2 -3 -4 -4 -5 -5 -5 -6 -7 -7 -7 -8 -8 -8 -9 -10 -11 -12 -12 -13 -13 -14 -14
-1 -2 -2 -2 -2 -1 -3 0 0 1 1 1 -0 3 1 1 0 -0 -1 -2 -3 -3 -4 -4 -5 -5 -5 -6 -7 -7 -8 -8 -8 -8 -9 -10 -11 -12 -12 -13 -13 -14 -14 -15
-1 -2 -2 -1 -2 -3 -0 -1 -1 -0 0 0 0 1 0 -0 -1 -1 -2 -2 -3 -4 -5 -5 -5 -5 -6 -6 -7 -8 -8 -8 -9 -9 -10 -12 -12 -13 -13 -14 -14 -14 -15 -15
-2 -2 -2 -3 -4 -2 -1 -1 -1 -0 1 0 -0 -1 -1 -2 -2 -2 -3 -3 -4 -4 -5 -5 -5 -6 -7 -7 -8 -8 -8 -9 -10 -11 -12 -13 -13 -13 -14 -14 -14 -14 -15 -15
-2 -3 -3 -5 -4 -3 -1 -1 -1 -2 -2 -1 -1 -2 -2 -3 -3 -3 -4 -4 -5 -5 -6 -6 -7 -7 -7 -8 -8 -9 -9 -10 -11 -12 -13 -13 -13 -13 -14 -14 -14 -15 -15 -15
-4 -4 -4 -4 -4 -4 -3 -3 -4 -4 -3 -3 -3 -3 -4 -4 -4 -5 -5 -5 -5 -6 -7 -7 -7 -8 -9 -9 -9 -10 -11 -12 -13 -13 -13 -13 -14 -14 -14 -14 -15 -15 -15 -16
-3 -4 -5 -5 -5 -4 -3 -4 -4 -5 -6 -5 -5 -5 -5 -5 -5 -6 -6 -6 -7 -7 -8 -8 -9 -9 -9 -10 -10 -11 -12 -13 -13 -13 -14 -14 -14 -14 -14 -15 -15 -16 -16 -16
-5 -4 -4 -5 -4 -5 -6 -6 -7 -7 -7 -6 -6 -6 -6 -7 -7 -7 -7 -8 -8 -8 -9 -9 -9 -9 -10 -11 -12 -13 -13 -13 -14 -14 -14 -14 -14 -15 -15 -15 -16 -16 -16 -16
-5 -5 -5 -5 -5 -6 -7 -7 -8 -9 -8 -7 -6 -6 -7 -7 -7 -8 -8 -9 -9 -10 -10 -10 -10 -10 -11 -12 -13 -13 -13 -14 -14 -14 -15 -15 -15 -15 -15 -16 -16 -16 -16 -16
-5 -5 -6 -6 -7 -8 -9 -9 -9 -8 -7 -7 -7 -8 -8 -8 -8 -8 -9 -10 -10 -10 -10 -10 -10 -11 -12 -13 -13 -13 -14 -14 -14 -15 -15 -15 -15 -16 -16 -16 -16 -16 -16 -17
-5 -6 -6 -7 -8 -9 -9 -8 -8 -8 -8 -8 -8 -8 -9 -9 -9 -10 -10 -10 -10 -10 -11 -11 -11 -12 -12 -12 -13 -13 -14 -14 -15 -15 -15 -15 -16 -16 -16 -16 -16 -17 -17 -17
Height
3159 3161 3159 3163 3165 3164 3164 3163 3163 3162 3163 3163 3162 3162 3163 3160 3160 3160 3160 3159 3159 3159 3159 3159 3160 3161 3161 3160 3161 3160 3159 3159 3158 3158 3157 3156 3157 3157 3157 3157 3155 3154 3152 3151
3155 3153 3158 3159 3159 3159 3159 3159 3158 3159 3158 3157 3155 3153 3155 3153 3152 3152 3151 3151 3151 3153 3154 3154 3154 3154 3154 3154 3154 3154 3155 3156 3157 3158 3158 3156 3154 3154 3154 3154 3153 3152 3151 3150
3149 3150 3151 3153 3153 3154 3154 3154 3155 3156 3153 3150 3148 3144 3144 3145 3142 3142 3142 3143 3144 3146 3148 3149 3151 3151 3151 3151 3151 3152 3153 3154 3155 3155 3156 3156 3154 3151 3151 3149 3149 3148 3148 3147
3142 3143 3145 3146 3147 3150 3148 3150 3150 3150 3151 3149 3145 3139 3136 3136 3135 3134 3134 3135 3137 3139 3141 3143 3144 3144 3144 3145 3145 3145 3146 3147 3149 3150 3150 3150 3153 3153 3149 3147 3145 3144 3144 3143
3135 3136 3138 3139 3141 3144 3143 3143 3145 3145 3144 3142 3141 3142 3126 3126 3127 3129 3130 3130 3132 3134 3135 3137 3138 3138 3139 3140 3141 3141 3143 3143 3144 3145 3145 3145 3145 3148 3147 3145 3142 3140 3139 3138
3129 3129 3131 3132 3134 3137 3137 3139 3140 3140 3141 3135 3132 3134 3121 3121 3121 3123 3125 3126 3127 3129 3131 3132 3133 3134 3136 3136 3137 3137 3137 3138 3139 3140 3140 3142 3141 3140 3141 3141 3137 3134 3133 3131
3120 3120 3123 3124 3127 3130 3130 3135 3138 3139 3138 3126 3123 3125 3115 3116 3117 3119 3121 3124 3126 3126 3127 3128 3129 3130 3130 3131 3132 3133 3133 3134 3133 3133 3133 3135 3134 3135 3134 3133 3131 3129 3125 3123
3114 3115 3113 3113 3116 3119 3121 3127 3126 3124 3123 3118 3119 3113 3107 3109 3113 3116 3118 3120 3121 3122 3123 3124 3124 3125 3126 3127 3127 3127 3127 3128 3128 3128 3126 3127 3127 3128 3126 3125 3123 3120 3117 3114
3107 3106 3106 3107 3109 3115 3114 3115 3121 3120 3118 3118 3109 3105 3105 3104 3107 3110 3112 3115 3116 3117 3119 3120 3120 3121 3120 3120 3121 3120 3121 3121 3121 3121 3121 3120 3120 3120 3118 3115 3113 3110 3107 3104
3101 3102 3101 3101 3104 3106 3107 3110 3115 3115 3114 3110 3099 3098 3096 3096 3101 3103 3106 3109 3111 3112 3113 3114 3114 3114 3114 3115 3114 3115 3114 3114 3115 3115 3114 3113 3112 3109 3107 3105 3103 3100 3097 3094
3095 3099 3097 3095 3091 3093 3099 3099 3103 3104 3103 3098 3092 3087 3087 3091 3095 3099 3103 3105 3107 3108 3109 3109 3108 3107 3107 3107 3107 3108 3107 3109 3108 3107 3106 3102 3101 3100 3097 3095 3093 3091 3087 3085
3085 3087 3087 3085 3085 3087 3088 3086 3089 3091 3093 3091 3089 3079 3084 3086 3090 3093 3097 3100 3101 3100 3100 3101 3102 3100 3100 3101 3101 3101 3102 3101 3101 3098 3095 3092 3089 3089 3088 3087 3084 3081 3079 3077
3075 3076 3082 3079 3080 3076 3075 3076 3078 3083 3084 3076 3084 3071 3079 3082 3085 3087 3089 3091 3092 3093 3092 3092 3093 3095 3094 3094 3094 3094 3093 3092 3090 3088 3085 3083 3083 3079 3079 3079 3076 3073 3070 3068
3065 3064 3058 3053 3059 3061 3062 3064 3067 3071 3069 3066 3055 3068 3072 3074 3078 3079 3080 3081 3083 3084 3084 3083 3084 3085 3087 3086 3085 3085 3083 3081 3079 3076 3076 3075 3073 3070 3069 3069 3067 3064 3062 3059
3050 3048 3051 3047 3052 3054 3051 3049 3054 3053 3050 3056 3053 3053 3060 3067 3070 3071 3071 3070 3072 3073 3074 3075 3075 3077 3077 3076 3076 3075 3073 3071 3070 3068 3067 3065 3064 3061 3059 3058 3056 3054 3053 3049
3035 3033 3041 3037 3040 3042 3041 3039 3038 3041 3044 3044 3047 3043 3051 3056 3059 3061 3061 3061 3063 3063 3063 3065 3065 3067 3066 3066 3066 3065 3063 3062 3061 3059 3059 3056 3054 3053 3051 3051 3050 3045 3041 3039
3023 3024 3027 3020 3028 3029 3027 3012 3024 3026 3028 3031 3032 3034 3043 3045 3050 3052 3051 3052 3053 3053 3054 3053 3056 3056 3055 3055 3055 3054 3054 3052 3051 3050 3049 3047 3045 3044 3043 3041 3040 3040 3034 3030
3005 3010 3014 3013 3016 3011 2995 3009 3010 3014 3019 3022 3025 3028 3034 3037 3040 3040 3039 3042 3043 3045 3045 3045 3045 3045 3046 3045 3046 3046 3045 3043 3041 3039 3038 3036 3036 3035 3033 3033 3030 3028 3025 3022
2991 2997 3002 3002 3000 2996 2994 2994 3000 3003 3005 3009 3014 3020 3023 3026 3029 3029 3031 3032 3034 3035 3036 3036 3035 3036 3036 3037 3036 3035 3034 3031 3029 3028 3027 3027 3026 3025 3024 3023 3020 3018 3016 3012
2984 2988 2991 2988 2990 2986 2984 2991 2993 2997 2996 3002 3008 3012 3016 3018 3017 3021 3022 3022 3024 3025 3026 3027 3028 3028 3027 3026 3024 3023 3022 3020 3020 3019 3018 3017 3015 3015 3013 3012 3010 3009 3006 3002
2973 2977 2977 2979 2979 2978 2979 2981 2985 2991 2992 2995 3000 3005 3006 3008 3011 3012 3012 3013 3015 3017 3018 3018 3018 3018 3017 3015 3014 3013 3012 3011 3010 3008 3007 3006 3006 3005 3004 3002 3001 2999 2996 2993
2962 2967 2968 2972 2973 2973 2974 2976 2980 2983 2985 2990 2993 2996 2998 3000 3001 3003 3004 3005 3007 3008 3008 3008 3008 3007 3006 3005 3004 3003 3003 3002 3001 2999 2998 2998 2996 2995 2994 2992 2990 2988 2985 2982
2958 2958 2960 2964 2962 2965 2967 2971 2974 2976 2980 2985 2987 2989 2990 2991 2993 2994 2995 2996 2997 2997 2997 2997 2997 2997 2996 2996 2995 2995 2995 2993 2992 2991 2990 2989 2987 2985 2984 2982 2980 2977 2975 2972
2951 2953 2954 2957 2958 2960 2962 2965 2969 2973 2976 2979 2981 2982 2982 2983 2983 2984 2984 2985 2987 2987 2988 2988 2987 2987 2986 2986 2985 2985 2984 2983 2982 2981 2980 2978 2977 2975 2973 2971 2969 2967 2965 2961
2947 2948 2947 2950 2953 2956 2958 2962 2966 2969 2972 2972 2973 2974 2975 2975 2975 2975 2975 2976 2978 2978 2979 2978 2977 2978 2979 2978 2977 2977 2975 2973 2972 2970 2969 2968 2966 2964 2961 2959 2957 2955 2953 2949
2939 2939 2941 2945 2949 2952 2956 2960 2962 2963 2964 2965 2966 2967 2967 2966 2966 2967 2968 2969 2969 2969 2968 2968 2969 2969 2971 2969 2967 2966 2965 2963 2961 2960 2959 2957 2954 2952 2950 2948 2946 2943 2940 2936
Wind_Speed
23 23 26 20 17 20 19 21 22 22 18 19 20 22 21 24 25 26 28 29 28 25 22 20 18 16 15 12 13 12 10 11 11 11 12 12 13 14 13 10 9 8 7 7
23 27 20 19 22 22 24 23 25 24 23 23 25 29 27 30 31 32 31 30 28 26 23 18 17 16 15 13 13 11 10 11 11 12 12 12 13 12 11 11 10 9 8 8
27 23 20 21 25 25 27 26 26 24 25 27 28 33 31 30 30 29 30 31 29 26 22 18 18 17 15 14 12 11 10 11 11 10 11 12 12 11 11 11 11 10 10 10
25 30 30 30 30 26 28 29 27 26 23 16 13 10 16 20 19 18 13 14 16 18 18 19 18 16 15 14 13 12 11 12 13 13 13 14 13 12 12 12 12 12 14 15
26 26 27 28 31 27 29 27 25 23 23 23 20 12 16 17 17 15 16 15 15 16 18 19 19 18 16 16 15 13 13 14 15 17 17 16 15 15 15 16 17 20 23 26
37 36 33 31 28 25 26 20 19 14 14 12 25 21 10 18 16 17 18 18 17 16 18 19 20 19 18 18 18 17 17 18 19 19 20 17 16 18 20 22 25 28 31 34
38 38 35 34 30 26 23 16 5 5 6 6 11 15 19 13 15 16 18 18 17 18 18 19 19 18 19 19 19 20 20 21 21 21 21 20 21 22 24 28 32 35 36 37
18 13 24 30 35 27 29 23 9 7 6 2 11 10 11 24 21 18 17 18 19 18 17 18 17 17 18 20 22 22 23 24 22 24 25 25 25 28 31 34 37 37 37 37
14 18 19 23 26 31 25 31 27 7 7 3 10 14 13 17 22 20 20 22 22 18 19 20 20 20 23 23 25 25 26 26 25 26 26 26 29 32 37 39 39 37 38 38
23 16 17 24 24 30 26 23 16 14 5 6 7 10 15 24 24 24 25 22 21 21 21 20 20 23 24 28 29 28 29 26 25 25 28 32 36 37 37 37 36 38 39 39
34 25 17 24 33 36 33 27 21 16 18 4 4 7 6 19 19 23 21 21 19 18 18 21 22 23 25 28 29 30 28 26 27 32 37 39 39 37 36 36 37 38 38 38
34 21 26 31 28 38 39 33 42 22 11 18 15 15 12 16 25 24 20 19 19 19 18 20 22 23 25 27 28 27 28 30 36 41 41 38 36 34 36 36 36 37 38 38
31 25 21 17 27 32 42 44 43 44 26 30 13 11 18 22 25 22 20 21 18 18 19 20 22 23 24 26 27 30 34 38 41 42 38 34 33 36 36 37 37 37 37 36
36 38 36 37 25 29 45 48 50 48 34 34 46 28 23 27 26 24 29 27 28 22 21 23 24 26 29 30 32 36 40 42 41 35 33 34 36 35 37 37 36 36 35 35
46 47 47 52 44 36 33 38 52 57 60 33 41 44 41 36 34 31 30 32 30 29 27 28 27 29 30 33 39 40 40 38 32 32 35 35 36 37 37 35 35 33 34 36
53 50 45 52 52 47 44 42 40 44 56 59 42 47 35 34 33 36 36 35 34 33 28 27 28 32 37 37 34 36 37 31 33 35 35 35 37 36 34 33 31 33 35 38
56 55 40 39 47 43 36 63 49 47 47 48 48 51 45 41 37 35 36 36 34 30 28 31 35 34 33 32 33 33 32 34 36 35 34 35 35 34 33 32 33 36 38 39
59 62 46 31 29 12 44 35 43 58 53 51 53 54 46 39 33 33 30 29 30 30 33 33 31 30 30 29 29 32 35 37 36 34 31 30 32 32 33 36 38 39 40 41
54 59 36 22 28 16 30 34 32 36 39 37 29 28 27 27 29 29 29 29 28 30 31 33 32 27 27 29 32 34 37 37 34 30 27 28 30 34 38 40 39 39 40 41
44 50 48 17 11 11 28 25 19 19 25 23 23 22 23 26 29 29 26 28 29 30 28 25 26 28 29 33 37 38 36 32 29 26 27 31 34 35 35 35 37 38 39 41
37 38 42 32 15 12 17 12 19 17 12 10 12 16 20 22 22 22 25 25 25 24 25 26 29 31 33 35 35 32 29 26 25 27 28 29 30 31 32 34 36 38 40 42
38 28 26 22 14 14 20 22 22 16 11 15 14 12 12 16 18 18 19 23 25 25 26 28 30 31 31 32 30 25 24 23 26 27 28 29 29 30 31 33 36 38 39 41
20 27 18 17 18 16 7 12 16 17 10 9 14 19 19 21 21 23 23 23 24 26 27 29 29 29 29 26 22 22 22 24 25 27 28 29 30 30 33 36 37 38 40 41
20 21 20 19 22 23 19 16 12 13 15 17 22 23 24 22 21 23 24 25 24 24 25 26 27 28 25 21 22 23 24 26 27 27 28 29 31 33 35 36 36 36 38 41
24 23 26 29 27 15 13 11 10 16 20 21 23 23 22 24 25 25 25 24 22 22 22 23 25 27 25 24 26 27 28 28 29 30 32 32 34 35 35 34 34 36 39 41
28 30 28 21 11 8 9 13 18 21 22 22 23 25 26 26 25 25 25 24 23 23 25 27 28 28 27 29 31 31 30 29 29 31 34 35 36 35 33 34 37 37 39 41
Wind_Direction
244 242 246 261 266 260 259 260 266 271 268 265 259 256 254 263 263 265 267 269 272 271 271 276 261 272 287 285 284 272 259 249 253 257 260 261 265 268 271 272 275 274 275 281
241 247 258 256 256 255 255 258 262 269 272 273 273 270 265 262 265 267 265 263 265 266 272 266 259 267 272 267 257 246 250 259 265 268 263 254 256 256 259 275 272 265 268 273
248 253 256 253 253 253 255 257 262 269 277 276 279 279 274 267 264 263 261 261 263 263 262 254 261 273 277 280 268 260 266 265 262 259 264 258 254 246 252 256 251 259 264 272
254 250 253 258 256 255 258 263 266 267 266 264 266 278 255 256 262 250 245 245 249 244 240 248 256 267 265 259 250 247 254 271 266 262 255 252 254 255 253 255 260 267 275 283
248 259 260 258 263 261 259 265 267 262 261 259 254 255 259 244 226 237 237 232 232 232 239 249 260 268 261 257 252 250 264 273 266 264 258 246 253 258 262 267 270 274 284 290
248 254 256 261 257 252 255 253 253 244 244 255 241 225 240 227 246 230 225 226 221 230 241 252 260 260 257 255 255 255 261 262 257 253 251 253 252 254 263 277 286 292 294 296
246 250 254 252 248 243 233 212 193 221 211 251 225 217 236 205 198 208 212 216 230 237 244 253 254 251 249 251 252 256 257 254 247 247 248 248 253 264 277 290 293 291 288 286
229 246 256 252 240 232 226 200 201 213 204 227 212 233 243 212 196 202 204 225 231 238 249 258 254 254 257 259 261 256 255 247 247 249 250 253 260 277 288 292 291 291 289 290
232 243 243 239 234 217 209 210 222 246 256 280 226 242 235 207 208 206 222 223 227 229 248 253 257 257 261 262 259 254 251 247 247 250 258 268 282 289 292 290 287 287 290 293
244 251 246 228 222 216 218 225 203 209 218 230 218 235 224 207 214 215 216 223 227 237 248 256 263 264 265 266 261 250 246 245 250 263 275 283 288 289 288 287 292 295 297 298
237 239 244 223 214 216 209 209 208 214 224 239 260 238 209 214 206 201 208 216 232 245 256 262 261 263 266 263 252 243 243 248 263 277 284 286 286 287 289 291 291 292 295 298
235 228 237 231 229 226 225 222 216 206 214 224 246 253 254 208 194 202 209 231 247 258 256 254 259 260 262 254 246 244 250 264 276 282 283 284 283 286 289 289 289 290 292 293
228 220 231 242 236 226 226 225 230 227 238 236 218 249 235 210 204 219 241 259 264 255 251 246 251 261 260 248 244 252 266 276 280 281 281 280 284 286 286 286 284 286 287 288
242 236 225 227 230 232 224 226 227 225 225 230 233 238 229 219 228 247 272 277 277 259 249 253 257 256 256 249 254 268 272 276 279 275 276 282 284 283 280 280 280 284 285 287
235 231 229 238 237 244 241 240 230 224 230 223 243 242 239 246 257 268 271 273 268 275 263 256 255 249 248 256 268 268 271 277 270 273 280 283 279 277 277 276 278 281 285 288
228 229 233 239 238 239 245 242 237 237 236 236 235 251 252 260 257 263 271 270 271 275 267 255 249 255 266 269 264 263 270 264 270 277 282 277 274 275 274 274 276 284 287 289
226 222 224 232 232 234 235 236 230 229 228 229 232 249 256 262 267 268 268 267 266 263 258 259 263 264 263 263 262 261 259 265 274 281 279 272 271 271 272 271 280 285 285 288
228 225 218 234 221 217 245 237 238 236 236 239 247 257 261 262 259 254 250 253 254 254 257 261 261 265 258 257 259 259 266 273 278 278 272 268 268 270 271 277 282 282 282 285
225 221 219 217 214 238 243 229 213 216 239 239 236 242 243 242 246 245 256 255 252 256 260 263 264 258 261 265 267 271 276 280 281 278 273 271 270 272 276 279 280 280 281 283
222 222 218 213 215 220 239 241 235 216 238 233 239 239 231 238 245 261 260 258 258 261 259 256 259 263 265 267 271 274 278 279 278 277 274 272 272 274 277 278 278 279 280 281
204 212 214 221 222 234 233 188 185 191 246 236 222 227 238 251 258 250 247 251 253 254 258 260 264 265 266 272 275 278 278 278 277 274 274 274 274 275 277 277 277 278 280 281
206 202 210 218 226 247 233 223 222 248 219 244 260 250 250 247 252 254 249 255 259 260 262 266 268 271 273 276 278 276 275 276 275 275 276 275 274 275 278 279 278 278 280 283
204 209 214 213 229 235 235 219 224 237 244 237 255 271 264 269 269 264 263 262 263 265 265 266 270 273 276 277 277 276 278 275 274 274 275 274 275 277 281 281 280 281 283 286
212 212 231 251 260 257 247 220 194 218 269 268 270 271 264 265 264 263 264 266 263 262 267 272 276 280 277 277 279 280 278 277 275 274 278 277 278 282 284 281 281 282 284 286
240 244 249 251 249 240 205 239 264 268 265 263 259 258 262 262 262 263 263 260 264 266 268 273 278 277 277 277 278 279 278 274 272 275 278 279 281 283 280 278 279 282 286 290
250 247 245 252 257 241 260 263 264 258 256 252 258 260 261 260 255 257 259 265 266 267 272 276 274 274 277 275 277 280 278 271 271 273 276 278 279 279 276 277 280 284 287 289